SHT21B EGJB-EGLL

Flight info

Callsign SHT21B
Flight time 0h 33m
Altitude 15000
Route ORIST1F ORIST L982 ROXOG ROXOG1H
Aircraft A320/M-SDE3FGHIRWY/LB1

Departure

Time 2026-04-22 15:00
Airport Guernsey Airport (EGJB)

Arrival

Time 2026-04-22 15:33
Airport London Heathrow Airport (EGLL)
Time Latitude Longitude Altitude Speed Heading
2026-04-22 14:32 49.43256 -2.59684 301 ft 0 kts 177°
2026-04-22 14:49 49.43271 -2.59685 328 ft 4 kts 176°
2026-04-22 14:49 49.43297 -2.59688 328 ft 4 kts 178°
2026-04-22 14:49 49.43324 -2.59686 328 ft 4 kts 194°
2026-04-22 14:50 49.43345 -2.59673 328 ft 4 kts 218°
2026-04-22 14:50 49.43360 -2.59642 329 ft 4 kts 258°
2026-04-22 14:50 49.43362 -2.59613 330 ft 0 kts 267°
2026-04-22 14:51 49.43362 -2.59614 330 ft 0 kts 267°
2026-04-22 14:53 49.43362 -2.59617 330 ft 2 kts 267°
2026-04-22 14:53 49.43360 -2.59690 329 ft 10 kts 265°
2026-04-22 14:53 49.43345 -2.59818 325 ft 14 kts 265°
2026-04-22 14:54 49.43340 -2.60026 312 ft 24 kts 267°
2026-04-22 14:54 49.43333 -2.60264 296 ft 24 kts 266°
2026-04-22 14:54 49.43327 -2.60526 296 ft 24 kts 268°
2026-04-22 14:54 49.43347 -2.60771 300 ft 22 kts 279°
2026-04-22 14:55 49.43363 -2.60967 310 ft 16 kts 269°
2026-04-22 14:55 49.43360 -2.61100 311 ft 7 kts 268°
2026-04-22 14:55 49.43358 -2.61181 312 ft 8 kts 268°
2026-04-22 14:55 49.43358 -2.61208 313 ft 0 kts 268°
2026-04-22 14:58 49.43358 -2.61211 313 ft 2 kts 268°
2026-04-22 14:58 49.43373 -2.61272 312 ft 10 kts 303°
2026-04-22 14:58 49.43421 -2.61348 316 ft 10 kts 333°
2026-04-22 14:58 49.43468 -2.61292 315 ft 10 kts 87°
2026-04-22 14:59 49.43468 -2.61287 315 ft 0 kts 88°
2026-04-22 14:59 49.43468 -2.61286 315 ft 0 kts 88°
2026-04-22 15:00 49.43479 -2.60900 311 ft 80 kts 87°
2026-04-22 15:00 49.43514 -2.59713 410 ft 132 kts 86°
2026-04-22 15:00 49.43542 -2.58243 1048 ft 141 kts 84°
2026-04-22 15:00 49.43577 -2.56758 1853 ft 138 kts 89°
2026-04-22 15:01 49.43621 -2.55208 2169 ft 156 kts 90°
2026-04-22 15:01 49.43670 -2.53412 2470 ft 181 kts 90°
2026-04-22 15:01 49.43739 -2.51424 3163 ft 190 kts 85°
2026-04-22 15:01 49.44283 -2.49521 3925 ft 207 kts 55°
2026-04-22 15:02 49.45564 -2.48315 4612 ft 231 kts 21°
2026-04-22 15:02 49.47153 -2.47713 5318 ft 239 kts 19°
2026-04-22 15:02 49.48794 -2.47114 5992 ft 251 kts 18°
2026-04-22 15:02 49.50575 -2.46450 6404 ft 274 kts 20°
2026-04-22 15:03 49.52458 -2.45742 7156 ft 281 kts 18°
2026-04-22 15:03 49.54370 -2.45023 8009 ft 285 kts 17°
2026-04-22 15:03 49.56308 -2.44294 8865 ft 288 kts 16°
2026-04-22 15:03 49.58271 -2.43552 9697 ft 293 kts 17°
2026-04-22 15:04 49.60258 -2.42805 10539 ft 295 kts 15°
2026-04-22 15:04 49.62266 -2.42045 11282 ft 299 kts 15°
2026-04-22 15:04 49.64301 -2.41269 12007 ft 304 kts 15°
2026-04-22 15:04 49.66363 -2.40479 12762 ft 307 kts 14°
2026-04-22 15:05 49.68428 -2.39581 13492 ft 311 kts 22°
2026-04-22 15:05 49.70332 -2.38060 14154 ft 315 kts 35°
2026-04-22 15:05 49.72045 -2.35788 14333 ft 336 kts 49°
2026-04-22 15:05 49.73602 -2.32956 14531 ft 354 kts 51°
2026-04-22 15:06 49.74684 -2.30971 14846 ft 359 kts 50°
2026-04-22 15:06 49.76832 -2.27034 15179 ft 363 kts 51°
2026-04-22 15:06 49.78491 -2.23993 15216 ft 374 kts 50°
2026-04-22 15:06 49.80177 -2.20916 15221 ft 376 kts 50°
2026-04-22 15:07 49.81873 -2.17830 15220 ft 376 kts 50°
2026-04-22 15:07 49.83565 -2.14742 15220 ft 376 kts 50°
2026-04-22 15:07 49.85258 -2.11650 15221 ft 376 kts 50°
2026-04-22 15:07 49.86948 -2.08559 15224 ft 376 kts 50°
2026-04-22 15:08 49.88638 -2.05464 15224 ft 376 kts 50°
2026-04-22 15:08 49.90329 -2.02362 15228 ft 376 kts 51°
2026-04-22 15:08 49.92015 -1.99262 15229 ft 376 kts 50°
2026-04-22 15:08 49.93701 -1.96156 15235 ft 376 kts 50°
2026-04-22 15:09 49.95381 -1.93047 15242 ft 376 kts 51°
2026-04-22 15:09 49.97063 -1.89934 15245 ft 376 kts 51°
2026-04-22 15:09 49.98765 -1.86853 15245 ft 376 kts 47°
2026-04-22 15:09 50.00737 -1.84181 15248 ft 377 kts 36°
2026-04-22 15:10 50.02998 -1.82127 15252 ft 377 kts 28°
2026-04-22 15:10 50.05340 -1.80295 15264 ft 376 kts 27°
2026-04-22 15:10 50.07677 -1.78459 15267 ft 376 kts 27°
2026-04-22 15:10 50.10008 -1.76615 15267 ft 375 kts 28°
2026-04-22 15:11 50.12291 -1.74660 15270 ft 374 kts 34°
2026-04-22 15:11 50.14345 -1.72181 15275 ft 373 kts 40°
2026-04-22 15:11 50.16333 -1.69588 15273 ft 373 kts 41°
2026-04-22 15:11 50.18325 -1.66998 15268 ft 373 kts 40°
2026-04-22 15:12 50.20321 -1.64408 15266 ft 373 kts 40°
2026-04-22 15:12 50.22314 -1.61824 15266 ft 373 kts 41°
2026-04-22 15:12 50.24310 -1.59230 15269 ft 373 kts 40°
2026-04-22 15:12 50.26420 -1.56875 15267 ft 374 kts 31°
2026-04-22 15:13 50.28791 -1.55183 15267 ft 376 kts 20°
2026-04-22 15:13 50.31288 -1.53961 15271 ft 376 kts 18°
2026-04-22 15:13 50.33785 -1.52744 15273 ft 376 kts 18°
2026-04-22 15:13 50.36283 -1.51524 15273 ft 376 kts 18°
2026-04-22 15:14 50.38775 -1.50303 15271 ft 376 kts 19°
2026-04-22 15:14 50.41272 -1.49075 15274 ft 376 kts 18°
2026-04-22 15:14 50.43715 -1.47870 15278 ft 376 kts 20°
2026-04-22 15:14 50.46264 -1.46609 15278 ft 376 kts 19°
2026-04-22 15:15 50.48757 -1.45376 15278 ft 376 kts 18°
2026-04-22 15:15 50.51258 -1.44145 15280 ft 376 kts 19°
2026-04-22 15:15 50.53734 -1.42830 15274 ft 376 kts 24°
2026-04-22 15:15 50.55995 -1.40990 15280 ft 374 kts 31°
2026-04-22 15:16 50.58275 -1.39012 15277 ft 374 kts 30°
2026-04-22 15:16 50.60557 -1.37053 15283 ft 374 kts 30°
2026-04-22 15:16 50.62843 -1.35099 15287 ft 373 kts 29°
2026-04-22 15:16 50.65125 -1.33152 15282 ft 373 kts 30°
2026-04-22 15:17 50.67409 -1.31202 15286 ft 373 kts 30°
2026-04-22 15:17 50.69644 -1.29285 15166 ft 365 kts 31°
2026-04-22 15:17 50.71867 -1.27372 14918 ft 353 kts 31°
2026-04-22 15:17 50.73964 -1.25568 14677 ft 343 kts 31°
2026-04-22 15:18 50.76031 -1.23790 14442 ft 335 kts 31°
2026-04-22 15:18 50.78024 -1.21940 14203 ft 331 kts 34°
2026-04-22 15:18 50.79964 -1.19974 13962 ft 330 kts 36°
2026-04-22 15:18 50.81871 -1.17966 13684 ft 328 kts 38°
2026-04-22 15:19 50.83759 -1.15951 13417 ft 327 kts 37°
2026-04-22 15:19 50.85034 -1.14593 13237 ft 326 kts 38°
2026-04-22 15:19 50.86891 -1.12631 12980 ft 325 kts 38°
2026-04-22 15:19 50.88776 -1.10659 12716 ft 325 kts 36°
2026-04-22 15:20 50.90513 -1.08853 12478 ft 324 kts 38°
2026-04-22 15:20 50.92381 -1.06907 12225 ft 323 kts 37°
2026-04-22 15:20 50.94270 -1.04947 11965 ft 322 kts 37°
2026-04-22 15:20 50.96118 -1.03040 11721 ft 321 kts 37°
2026-04-22 15:21 50.97987 -1.01125 11466 ft 320 kts 37°
2026-04-22 15:21 50.99835 -0.99181 11221 ft 317 kts 42°
2026-04-22 15:21 51.01447 -0.96860 10986 ft 310 kts 51°
2026-04-22 15:21 51.02872 -0.94292 10740 ft 309 kts 52°
2026-04-22 15:22 51.04299 -0.91750 10500 ft 306 kts 53°
2026-04-22 15:22 51.05718 -0.89231 10269 ft 305 kts 52°
2026-04-22 15:22 51.07108 -0.86766 10121 ft 294 kts 53°
2026-04-22 15:22 51.08450 -0.84387 9990 ft 284 kts 53°
2026-04-22 15:23 51.09756 -0.82061 9858 ft 281 kts 53°
2026-04-22 15:23 51.11051 -0.79747 9723 ft 279 kts 53°
2026-04-22 15:23 51.12340 -0.77437 9589 ft 279 kts 53°
2026-04-22 15:23 51.13758 -0.75315 9463 ft 284 kts 37°
2026-04-22 15:24 51.15602 -0.74169 9327 ft 288 kts 12°
2026-04-22 15:24 51.17563 -0.74113 9195 ft 283 kts
2026-04-22 15:24 51.19531 -0.74212 9061 ft 275 kts
2026-04-22 15:24 51.21417 -0.74313 8930 ft 268 kts
2026-04-22 15:25 51.23254 -0.74415 8757 ft 262 kts
2026-04-22 15:25 51.25073 -0.74509 8451 ft 262 kts
2026-04-22 15:25 51.26895 -0.74596 8122 ft 263 kts
2026-04-22 15:25 51.28729 -0.74684 7782 ft 265 kts
2026-04-22 15:26 51.30577 -0.74774 7439 ft 267 kts
2026-04-22 15:26 51.32440 -0.74863 7090 ft 269 kts
2026-04-22 15:26 51.34321 -0.74953 6748 ft 271 kts
2026-04-22 15:26 51.36236 -0.75044 6159 ft 282 kts
2026-04-22 15:27 51.38192 -0.75700 5613 ft 295 kts 345°
2026-04-22 15:27 51.40152 -0.76802 5072 ft 302 kts 344°
2026-04-22 15:27 51.42136 -0.77941 4534 ft 301 kts 344°
2026-04-22 15:27 51.44083 -0.79056 4029 ft 293 kts 345°
2026-04-22 15:28 51.45993 -0.79693 3675 ft 269 kts 10°
2026-04-22 15:28 51.47620 -0.78718 3344 ft 240 kts 46°
2026-04-22 15:28 51.48395 -0.76577 3114 ft 215 kts 85°
2026-04-22 15:28 51.48077 -0.74392 3008 ft 198 kts 116°
2026-04-22 15:29 51.47535 -0.72511 2958 ft 177 kts 94°
2026-04-22 15:29 51.47644 -0.70587 2798 ft 171 kts 85°
2026-04-22 15:29 51.47663 -0.68761 2606 ft 156 kts 90°
2026-04-22 15:30 51.47669 -0.65498 2215 ft 141 kts 89°
2026-04-22 15:30 51.47676 -0.63940 2023 ft 140 kts 89°
2026-04-22 15:30 51.47684 -0.62376 1825 ft 139 kts 89°
2026-04-22 15:30 51.47691 -0.60822 1634 ft 136 kts 89°
2026-04-22 15:31 51.47698 -0.59369 1468 ft 128 kts 88°
2026-04-22 15:31 51.47705 -0.57957 1286 ft 126 kts 89°
2026-04-22 15:31 51.47712 -0.56557 1112 ft 125 kts 88°
2026-04-22 15:31 51.47719 -0.55162 941 ft 127 kts 88°
2026-04-22 15:32 51.47725 -0.53749 771 ft 129 kts 90°
2026-04-22 15:32 51.47732 -0.52332 597 ft 126 kts 90°
2026-04-22 15:32 51.47741 -0.50936 439 ft 126 kts 90°
2026-04-22 15:32 51.47756 -0.49519 247 ft 125 kts 91°
2026-04-22 15:33 51.47757 -0.48168 115 ft 122 kts 92°
2026-04-22 15:33 51.47755 -0.46950 92 ft 85 kts 90°
2026-04-22 15:33 51.47755 -0.46323 91 ft 11 kts 95°
2026-04-22 15:33 51.47737 -0.46212 90 ft 15 kts 120°
2026-04-22 15:34 51.47649 -0.46087 87 ft 17 kts 158°
2026-04-22 15:34 51.47628 -0.46091 88 ft 2 kts 199°
2026-04-22 15:34 51.47609 -0.46107 90 ft 7 kts 212°
2026-04-22 15:34 51.47594 -0.46246 90 ft 18 kts 269°
2026-04-22 15:35 51.47593 -0.46458 86 ft 20 kts 269°
2026-04-22 15:35 51.47591 -0.46679 86 ft 17 kts 269°
2026-04-22 15:35 51.47585 -0.46862 89 ft 16 kts 263°
2026-04-22 15:35 51.47583 -0.47038 90 ft 14 kts 270°
2026-04-22 15:36 51.47583 -0.47210 90 ft 17 kts 270°
2026-04-22 15:36 51.47580 -0.47402 88 ft 16 kts 269°
2026-04-22 15:36 51.47579 -0.47560 89 ft 14 kts 269°
2026-04-22 15:36 51.47581 -0.47732 90 ft 17 kts 271°
2026-04-22 15:37 51.47580 -0.47895 90 ft 14 kts 269°
2026-04-22 15:37 51.47579 -0.48060 90 ft 16 kts 270°
2026-04-22 15:37 51.47579 -0.48253 88 ft 18 kts 270°
2026-04-22 15:37 51.47563 -0.48451 90 ft 17 kts 232°
2026-04-22 15:38 51.47488 -0.48563 86 ft 17 kts 263°
2026-04-22 15:38 51.47490 -0.48877 87 ft 7 kts 274°
2026-04-22 15:38 51.47459 -0.48895 88 ft 6 kts 184°
2026-04-22 15:39 51.47426 -0.48891 86 ft 3 kts 178°
2026-04-22 15:39 51.47412 -0.48891 88 ft 1 kts 179°
2026-04-22 15:39 51.47407 -0.48891 91 ft 0 kts 179°
2026-04-22 15:39 51.47403 -0.48891 90 ft 0 kts 179°
2026-04-22 15:40 51.47402 -0.48891 90 ft 0 kts 179°